Погода в Бурге

Россия / Новгородская область     58°43′31″N   32°27′45″E
темп.,
°C
ветер,
м/с
пор.,
м/с
влажн.,
%
обл.,
%
осадки,
мм/ч
давл.,
гПа
погр.,
м
20 апреля, вт
вт2000:00+3всв396264 0.0 1026265
03:00+2в3107290 0.0 1025250
06:00+2в310795 0.0 1024259
09:00+6вюв585587 0.0 1023652
12:00+8вюв574054 0.0 10221468
15:00+10вюв564599 0.0 10201832
18:00+9вюв4656100 0.0 10191489
21:00+7в3868100 0.0 1018494
21 апреля, ср
ср2100:00+4вюв4983100 0.0 1016509
03:00+4в2693100 0.1 1014608
06:00+4св3693100 0.4 1011527
09:00+3ссв3697100 0.9 1008443
12:00+2ссв2599100 1.7 1006302
15:00+2ссз2499100 4.9 1005215
18:00+2зсз2499100 1.2 1005268
21:00+2з2499100 1.8 1005330
22 апреля, чт
чт2200:00+2зюз2698100 0.1 1006513
03:00+2ю129983 0.1 100769
06:00+2ююв249778 0.0 1007223
09:00+7ю35795 0.0 1007374
12:00+12ююз46644 0.1 10071133
15:00+13ююз465450 0.9 10081631
18:00+12ю486014 0.4 1008581
21:00+8ююв4128228 0.4 1008317
23 апреля, пт
пт2300:00+7ю399191 0.2 1008299
03:00+6ююз239789 0.2 1008117
06:00+6ююз0095100 0.0 100718
09:00+4з3593100 3.1 1008571
12:00+4юз3596100 2.3 1010558
15:00+5ююз358599 2.4 1011755
18:00+6ююв3576100 0.1 1011762
21:00+3юв2694100 0.1 1011132
24 апреля, сб
сб2400:00+3ююв2693100 0.0 1010140
03:00+2ю229595 0.0 100935
06:00+2ю1193100 0.0 100919
09:00+6зюз1172100 0.0 1008415
12:00+8юз225781 0.6 10081277
15:00+8юз3357100 1.9 10081277
18:00+7юз3464100 1.0 10081010
21:00+3ю1175100 1.1 100810